Tracking 22779 objects as of 14-Apr-2021
HD Live streaming from Space Station
objects crossing your sky now

MORELOS 2

Track MORELOS 2 now!
MORELOS 2 is classified as:


NORAD ID: 16274
Int'l Code: 1985-109B
Perigee: 35,957.9 km
Apogee: 36,030.6 km
Inclination: 14.7 °
Period: 1,446.4 minutes
Semi major axis: 42365 km
RCS: 7.6304 m2 (large)
Launch date: November 27, 1985
Source: Mexico (MEX)
Launch site: AIR FORCE EASTERN TEST RANGE (AFETR)
aabbcc
Your satellite tracking list
Your tracking list is empty




NASA's NSSDC Master Catalog

Two Line Element Set (TLE):
1 16274U 85109B   21100.84216279  .00000089  00000-0  00000-0 0  9993
2 16274  14.6698  11.2844 0008577  56.5044 124.4293  0.99560696 27506
Source of the keplerian elements: AFSPC